TimeEDT,TemperatureF,Dew PointF,Humidity,Sea Level PressureIn,VisibilityMPH,Wind Direction,Wind SpeedMPH,Gust SpeedMPH,PrecipitationIn,Events,Conditions,WindDirDegrees,DateUTC
12:14 AM,33.4,30.9,90,30.08,10.0,North,3.5,-,N/A,,Overcast,350,2012-11-03 04:14:00
12:34 AM,32.5,30.0,90,30.08,10.0,North,4.6,-,N/A,,Overcast,350,2012-11-03 04:34:00
12:54 AM,32.4,29.7,90,30.09,7.0,North,5.8,-,N/A,Snow,Light Snow,350,2012-11-03 04:54:00
1:13 AM,32.4,29.8,90,30.10,10.0,NNW,4.6,-,N/A,,Overcast,340,2012-11-03 05:13:00
1:34 AM,32.4,30.0,91,30.10,7.0,Calm,Calm,-,N/A,Snow,Light Snow,0,2012-11-03 05:34:00
1:54 AM,32.4,30.0,91,30.10,3.0,North,4.6,-,N/A,Snow,Light Snow,360,2012-11-03 05:54:00
2:14 AM,32.4,29.8,90,30.11,10.0,NNW,4.6,-,N/A,,Overcast,340,2012-11-03 06:14:00
2:34 AM,32.4,30.0,91,30.11,5.0,NNW,3.5,-,N/A,Snow,Light Snow,340,2012-11-03 06:34:00
2:54 AM,33.6,31.1,90,30.11,5.0,NNW,3.5,-,N/A,Snow,Light Snow,340,2012-11-03 06:54:00
3:14 AM,33.8,31.1,90,30.11,5.0,NNW,3.5,-,N/A,Snow,Light Snow,340,2012-11-03 07:14:00
3:34 AM,32.4,29.8,90,30.11,7.0,NNW,3.5,-,N/A,Snow,Light Snow,330,2012-11-03 07:34:00
3:54 AM,32.4,30.0,91,30.11,3.0,Calm,Calm,-,N/A,Snow,Light Snow,0,2012-11-03 07:54:00
4:14 AM,32.0,29.5,90,30.11,10.0,Calm,Calm,-,N/A,,Overcast,0,2012-11-03 08:14:00
4:34 AM,31.5,28.4,88,30.11,10.0,Calm,Calm,-,N/A,,Overcast,0,2012-11-03 08:34:00
4:54 AM,32.0,29.1,89,30.12,10.0,NW,4.6,-,N/A,,Overcast,310,2012-11-03 08:54:00
5:14 AM,32.0,29.1,89,30.12,7.0,NNW,3.5,-,N/A,Snow,Light Snow,330,2012-11-03 09:14:00
5:34 AM,32.0,29.1,89,30.13,10.0,North,3.5,-,N/A,,Overcast,350,2012-11-03 09:34:00
5:54 AM,32.0,29.1,89,30.13,10.0,Calm,Calm,-,N/A,,Overcast,0,2012-11-03 09:54:00
6:14 AM,31.6,28.6,88,30.13,3.0,Calm,Calm,-,N/A,Snow,Light Snow,0,2012-11-03 10:14:00
6:34 AM,31.5,28.4,88,30.14,10.0,North,3.5,-,N/A,,Overcast,10,2012-11-03 10:34:00
6:54 AM,31.5,28.4,88,30.14,10.0,NNW,3.5,-,N/A,,Overcast,340,2012-11-03 10:54:00
7:14 AM,31.5,28.4,88,30.14,7.0,Calm,Calm,-,N/A,,Overcast,0,2012-11-03 11:14:00
7:34 AM,31.5,28.4,88,30.14,7.0,NNE,3.5,-,N/A,,Overcast,20,2012-11-03 11:34:00
7:54 AM,31.5,28.4,88,30.14,10.0,NNE,3.5,-,N/A,,Overcast,20,2012-11-03 11:54:00
8:14 AM,31.5,28.2,88,30.14,10.0,North,3.5,-,N/A,,Overcast,10,2012-11-03 12:14:00
8:34 AM,31.5,28.2,88,30.14,3.0,NNE,4.6,-,N/A,Snow,Light Snow,20,2012-11-03 12:34:00
8:54 AM,31.5,28.2,88,30.15,10.0,Calm,Calm,-,N/A,,Overcast,0,2012-11-03 12:54:00
9:14 AM,31.5,28.0,87,30.16,10.0,NNE,3.5,-,N/A,,Overcast,30,2012-11-03 13:14:00
9:34 AM,31.5,27.7,86,30.16,10.0,NNE,5.8,-,N/A,,Overcast,20,2012-11-03 13:34:00
9:53 AM,31.5,27.5,85,30.17,10.0,North,3.5,-,N/A,,Overcast,10,2012-11-03 13:53:00
10:14 AM,31.5,27.5,85,30.17,10.0,NNE,5.8,-,N/A,,Overcast,20,2012-11-03 14:14:00
10:34 AM,32.0,27.9,85,30.17,10.0,NNE,4.6,-,N/A,,Overcast,20,2012-11-03 14:34:00
11:14 AM,33.8,29.5,84,30.17,10.0,NNE,6.9,-,N/A,,Overcast,20,2012-11-03 15:14:00
11:34 AM,33.8,28.9,82,30.17,10.0,NNE,5.8,-,N/A,,Overcast,20,2012-11-03 15:34:00
11:54 AM,33.8,29.1,83,30.17,10.0,NE,5.8,-,N/A,,Overcast,50,2012-11-03 15:54:00
12:14 PM,33.8,28.2,80,30.18,10.0,NNW,5.8,-,N/A,,Overcast,340,2012-11-03 16:14:00
12:34 PM,33.8,28.4,81,30.18,10.0,North,4.6,-,N/A,,Overcast,350,2012-11-03 16:34:00
12:54 PM,33.8,28.2,80,30.18,10.0,North,4.6,-,N/A,,Overcast,350,2012-11-03 16:54:00
1:14 PM,35.1,29.3,80,30.18,10.0,North,4.6,-,N/A,,Overcast,10,2012-11-03 17:14:00
1:34 PM,36.1,30.2,79,30.17,10.0,North,5.8,-,N/A,,Overcast,360,2012-11-03 17:34:00
1:54 PM,36.1,30.6,80,30.17,10.0,NNW,4.6,-,N/A,,Overcast,340,2012-11-03 17:54:00
2:14 PM,36.1,31.1,82,30.16,7.0,NNW,4.6,-,N/A,,Overcast,340,2012-11-03 18:14:00
2:34 PM,36.1,30.4,80,30.16,10.0,North,5.8,-,N/A,,Overcast,350,2012-11-03 18:34:00
2:54 PM,36.1,32.0,85,30.17,2.5,NW,6.9,-,N/A,Snow,Light Snow,320,2012-11-03 18:54:00
3:14 PM,36.1,30.6,80,30.16,10.0,NNW,8.1,-,N/A,,Overcast,340,2012-11-03 19:14:00
3:34 PM,36.1,30.0,78,30.16,10.0,NW,10.4,-,N/A,,Overcast,310,2012-11-03 19:34:00
3:54 PM,36.1,29.7,77,30.16,10.0,NNW,6.9,-,N/A,,Overcast,330,2012-11-03 19:54:00
4:14 PM,36.1,30.9,81,30.16,7.0,NW,5.8,-,N/A,,Overcast,320,2012-11-03 20:14:00
4:34 PM,36.1,30.0,78,30.16,7.0,NNW,9.2,16.1,N/A,,Overcast,340,2012-11-03 20:34:00
4:54 PM,36.1,31.1,82,30.17,10.0,North,5.8,-,N/A,,Overcast,350,2012-11-03 20:54:00
5:14 PM,36.1,30.7,81,30.16,10.0,North,3.5,-,N/A,,Overcast,360,2012-11-03 21:14:00
5:34 PM,36.1,30.7,81,30.16,10.0,North,4.6,-,N/A,,Overcast,360,2012-11-03 21:34:00
5:54 PM,36.1,30.0,78,30.16,10.0,NNW,5.8,-,N/A,,Overcast,340,2012-11-03 21:54:00
6:14 PM,36.0,28.4,74,30.16,10.0,North,5.8,-,N/A,,Overcast,360,2012-11-03 22:14:00
6:34 PM,33.8,27.7,78,30.16,10.0,NNW,5.8,-,N/A,,Overcast,340,2012-11-03 22:34:00
6:54 PM,33.8,27.1,77,30.16,10.0,North,3.5,-,N/A,,Overcast,350,2012-11-03 22:54:00
7:14 PM,33.8,27.1,77,30.16,10.0,North,4.6,-,N/A,,Overcast,350,2012-11-03 23:14:00
7:34 PM,33.8,29.3,84,30.17,5.0,North,6.9,-,N/A,Snow,Light Snow,360,2012-11-03 23:34:00
7:54 PM,33.8,27.5,78,30.17,10.0,NNW,6.9,-,N/A,,Overcast,340,2012-11-03 23:54:00
8:14 PM,33.8,26.8,75,30.17,10.0,North,4.6,-,N/A,,Overcast,360,2012-11-04 00:14:00
8:34 PM,33.8,27.3,77,30.17,10.0,NNE,4.6,-,N/A,,Overcast,20,2012-11-04 00:34:00
9:14 PM,33.8,27.9,79,30.17,10.0,North,3.5,-,N/A,,Overcast,10,2012-11-04 01:14:00
9:34 PM,33.8,28.2,80,30.17,10.0,North,4.6,-,N/A,,Overcast,360,2012-11-04 01:34:00
9:54 PM,33.8,27.7,78,30.17,10.0,NNE,4.6,-,N/A,,Overcast,30,2012-11-04 01:54:00
10:14 PM,33.8,28.2,80,30.18,10.0,NE,4.6,-,N/A,,Overcast,40,2012-11-04 02:14:00
10:34 PM,33.8,28.0,79,30.18,10.0,NNE,3.5,-,N/A,,Overcast,20,2012-11-04 02:34:00
10:54 PM,33.6,28.0,80,30.17,10.0,North,3.5,-,N/A,,Overcast,10,2012-11-04 02:54:00
11:14 PM,32.4,26.6,79,30.17,10.0,North,3.5,-,N/A,,Overcast,360,2012-11-04 03:14:00
11:34 PM,32.4,27.0,80,30.17,10.0,NNE,5.8,-,N/A,,Overcast,20,2012-11-04 03:34:00
11:54 PM,32.0,26.6,80,30.17,10.0,NNE,5.8,-,N/A,,Overcast,30,2012-11-04 03:54:00